This is the latest recevied weather packets stored in our database for station/object N9PBY-2. If no packets are shown the sender has not sent any weather packets the latest 10 day(s).
| Time | Temp. | Humidity | Pressure | Rain* | Wind** | Luminosity | Snow |
|---|---|---|---|---|---|---|---|
| 1777958406 | 11.67° C | 36% | 1001.7 hPa | 0 mm | - | - | - |
| 1777957807 | 12.22° C | 36% | 1001.5 hPa | 0 mm | - | - | - |
| 1777957214 | 12.22° C | 35% | 1001.4 hPa | 0 mm | - | - | - |
| 1777956606 | 12.22° C | 35% | 1001.1 hPa | 0 mm | - | - | - |
| 1777956007 | 12.78° C | 35% | 1001 hPa | 0 mm | - | - | - |
| 1777955407 | 12.78° C | 34% | 1001 hPa | 0 mm | - | - | - |
| 1777954807 | 13.33° C | 32% | 1000.8 hPa | 0 mm | - | - | - |
| 1777954207 | 13.89° C | 31% | 1000.8 hPa | 0 mm | - | - | - |
| 1777953607 | 13.89° C | 30% | 1000.7 hPa | 0 mm | - | - | - |
| 1777953009 | 14.44° C | 29% | 1000.3 hPa | 0 mm | - | - | - |
| 1777952407 | 14.44° C | 28% | 1000.1 hPa | 0 mm | - | - | - |
| 1777951807 | 14.44° C | 26% | 999.9 hPa | 0 mm | - | - | - |
| 1777951207 | 15° C | 25% | 999.6 hPa | 0 mm | - | - | - |
| 1777950608 | 15° C | 25% | 999.3 hPa | 0 mm | - | - | - |
| 1777950007 | 15.56° C | 25% | 999 hPa | 0 mm | - | - | - |
| 1777949407 | 15.56° C | 27% | 998.9 hPa | 0 mm | - | - | - |
| 1777948809 | 15.56° C | 27% | 998.9 hPa | 0 mm | - | - | - |
| 1777948206 | 16.11° C | 27% | 998.8 hPa | 0 mm | - | - | - |
| 1777947606 | 16.11° C | 29% | 998.5 hPa | 0 mm | - | - | - |
| 1777947007 | 16.11° C | 31% | 998.4 hPa | 0 mm | - | - | - |
| 1777946406 | 16.67° C | 32% | 998 hPa | 0 mm | - | - | - |
| 1777945806 | 16.67° C | 32% | 997.6 hPa | 0 mm | - | - | - |
| 1777945206 | 17.22° C | 30% | 997.2 hPa | 0 mm | - | - | - |
| 1777944606 | 17.78° C | 29% | 996.9 hPa | 0 mm | - | - | - |
| 1777944007 | 17.78° C | 28% | 996.7 hPa | 0 mm | - | - | - |
* Rain latest hour (hover to see other rain measurements)
** Current wind speed in m/s (hover to see current wind gust speed)